Theta_e
314 315 316 315 317 320 327 338 338 344 359 366 368 365 361 359 356 363 371 366 362 359 363 368 366 372 372 364 367 371 364 356 351 353 354 353 352 350 349 350 349 349 348 346 346 348 349 349 350 350 350 350 351 351 349 347 348 348 347 347 346 345 346 345 345 344 344 345 346 347 347 347 347 347 347 347 348 350 351 350 349 349 349 350 351 350
315 314 316 315 318 322 323 328 327 330 345 358 361 359 357 357 356 362 369 364 360 357 360 367 367 368 368 361 365 370 366 362 357 354 353 352 352 352 350 351 351 352 352 348 347 349 349 350 350 350 350 350 351 351 349 347 348 348 348 347 346 346 347 347 346 346 346 347 347 347 347 347 347 347 346 346 347 349 351 351 350 350 349 350 351 351
316 315 317 315 317 320 320 322 323 323 328 342 356 355 351 358 358 355 362 364 360 357 360 366 366 368 367 359 362 368 369 369 364 359 359 355 352 352 352 353 353 354 354 351 349 348 349 350 351 351 350 350 350 351 349 347 347 349 349 348 347 347 347 347 347 348 347 347 347 346 346 346 346 346 346 346 347 348 351 352 351 350 350 350 352 351
313 317 318 316 316 317 318 320 322 321 321 334 353 353 349 357 356 347 354 363 363 359 360 364 364 368 369 363 363 363 366 372 366 363 366 360 353 351 350 351 353 353 352 351 349 348 349 350 351 351 351 350 350 350 349 348 348 350 351 349 348 347 347 347 347 348 348 347 347 346 346 346 345 345 345 346 347 349 351 352 352 350 349 350 351 351
315 318 317 316 317 319 319 319 320 319 320 330 349 357 358 362 359 355 358 362 362 359 360 362 357 362 369 366 365 360 360 366 365 364 365 362 359 353 349 350 351 351 350 350 349 348 349 349 350 351 351 351 350 350 350 349 349 351 351 349 348 347 346 347 348 348 348 347 347 347 347 346 346 346 346 346 348 349 350 352 351 350 349 349 350 351
319 317 315 317 319 319 318 320 322 318 320 329 343 355 360 363 366 365 362 360 358 355 359 356 344 352 366 364 362 360 359 363 364 366 365 362 362 356 351 351 350 350 349 348 348 347 348 349 350 351 351 351 350 350 350 349 349 350 350 349 348 348 347 347 348 348 348 348 347 347 347 346 347 347 347 346 347 348 350 351 351 351 350 349 349 350
320 318 317 318 319 320 319 320 321 320 324 329 338 348 356 365 369 364 359 357 355 351 355 356 342 344 359 364 361 358 360 362 361 365 364 361 362 358 351 349 350 350 348 348 348 347 348 349 349 350 350 351 350 350 350 349 349 349 349 349 349 349 348 347 347 347 347 347 348 347 346 346 347 347 347 345 346 347 348 350 351 351 352 351 350 350
320 319 318 319 320 320 320 320 320 324 325 322 331 349 358 367 367 361 358 356 358 353 353 362 351 342 352 359 356 354 359 363 360 361 363 361 362 360 354 349 349 349 348 348 348 347 348 348 349 350 350 350 351 350 350 350 349 349 349 350 350 349 348 347 347 347 347 347 347 347 346 346 346 346 346 345 345 347 348 350 351 351 352 352 351 349
321 318 318 320 321 319 320 325 323 322 321 323 339 355 357 361 362 359 358 357 357 348 344 357 354 343 351 360 357 355 358 362 361 359 360 360 361 360 357 352 349 349 348 347 347 347 347 348 349 349 350 350 350 350 349 350 350 350 350 350 350 349 347 347 346 346 347 347 347 347 346 346 347 346 345 346 346 348 349 350 351 351 351 352 351 348
320 320 321 317 319 320 323 325 319 317 324 332 345 353 348 351 356 357 358 356 352 344 341 351 353 344 348 360 362 357 358 363 364 358 356 357 357 359 358 355 351 349 348 347 347 346 346 348 349 349 350 350 350 350 349 349 349 349 350 350 350 350 347 346 347 347 347 347 347 346 346 347 347 347 347 347 348 348 349 350 351 350 351 352 351 348
322 326 328 323 322 323 323 318 314 324 335 341 350 350 347 350 354 357 361 354 346 345 345 347 350 342 338 352 363 361 362 366 365 361 358 356 356 357 357 356 353 350 349 347 346 346 345 347 349 349 349 349 349 349 348 348 349 349 350 349 349 349 348 346 347 347 346 346 346 347 347 347 347 347 347 347 348 348 349 350 350 351 351 352 352 349
325 325 326 328 326 322 320 316 315 324 332 341 353 350 345 344 347 352 352 348 344 344 345 347 349 341 335 345 358 364 368 365 364 364 360 356 355 356 356 356 354 350 348 348 347 346 346 347 348 349 349 349 349 348 348 348 348 348 349 349 349 348 348 347 346 347 345 345 346 347 347 347 347 347 346 347 347 348 349 349 350 351 351 352 352 351
329 327 322 323 326 325 321 317 316 319 326 341 349 339 333 333 341 350 346 344 344 339 342 348 348 343 344 351 356 361 364 360 360 359 356 355 354 354 355 355 355 352 348 348 348 347 347 347 348 348 348 349 348 347 347 347 347 348 348 348 348 348 348 347 346 346 346 345 346 346 347 348 348 348 347 347 348 347 348 348 349 351 351 352 352 351
324 327 323 320 323 324 323 319 316 316 324 338 339 327 328 332 335 341 339 336 336 334 341 348 346 345 347 352 357 358 356 356 357 356 355 354 353 353 354 353 354 352 349 348 348 347 347 347 347 348 349 348 348 347 347 347 347 347 348 348 348 348 348 347 346 346 345 345 345 345 346 347 348 349 348 347 348 348 347 348 348 350 351 351 351 351
317 320 322 321 320 321 324 323 321 325 326 328 330 323 325 331 328 327 330 333 332 335 342 341 340 345 342 343 354 355 352 354 355 356 358 356 354 353 352 353 355 352 350 348 348 347 346 346 347 347 348 348 348 347 347 346 346 347 347 348 347 348 348 347 346 346 345 346 346 345 346 347 348 349 348 348 348 348 348 348 348 349 350 350 350 351
315 317 324 322 319 320 323 323 326 335 327 322 327 322 319 327 333 328 328 338 338 335 341 339 339 351 350 346 356 357 354 356 353 355 362 364 361 358 355 355 354 353 351 349 348 349 346 345 346 348 348 348 348 347 347 346 346 347 347 347 347 347 347 347 346 345 346 346 346 347 347 348 349 348 348 347 348 348 348 349 349 349 350 350 350 350
315 317 324 323 323 324 323 324 328 327 325 328 328 323 323 330 343 336 326 336 337 327 335 340 340 352 351 345 356 364 364 362 358 358 361 363 363 361 360 358 355 355 354 351 351 350 347 345 345 347 348 348 348 347 347 347 346 347 347 347 347 347 347 346 346 346 346 346 346 347 348 349 350 349 347 347 348 349 349 350 350 350 349 349 349 349
318 318 322 324 325 325 323 327 331 327 329 334 328 327 330 328 336 337 329 336 335 326 336 340 340 347 344 341 354 367 369 365 363 363 361 361 363 361 361 359 357 356 355 353 352 350 347 345 344 346 347 348 348 347 347 347 347 347 347 347 347 347 347 346 346 346 345 346 347 348 349 350 350 349 348 349 350 350 351 350 350 350 349 349 348 348
321 317 320 325 324 323 329 331 330 330 330 331 331 332 330 326 330 329 326 332 330 327 339 342 340 343 343 349 358 361 366 369 366 367 364 362 363 362 362 362 359 357 355 354 354 354 352 346 344 346 346 347 347 347 348 347 347 347 347 347 347 347 347 346 346 346 346 346 346 348 349 349 350 350 349 350 351 351 351 350 349 349 349 349 349 350
324 318 316 323 323 319 329 333 326 329 330 330 335 334 333 340 339 329 327 330 328 331 339 340 339 342 347 361 367 363 370 374 368 369 367 362 362 361 360 362 361 359 359 360 360 360 356 347 344 345 345 346 346 346 347 347 347 348 347 347 348 347 347 347 347 346 346 346 346 347 348 348 350 351 350 351 351 352 352 350 349 349 348 349 350 351
327 322 315 323 327 319 324 330 327 332 334 331 332 329 332 338 333 330 333 333 331 336 341 338 337 346 354 361 368 369 371 372 368 367 366 364 362 360 357 358 360 358 360 364 362 360 355 347 344 345 344 345 346 345 347 347 347 348 348 348 348 348 348 347 347 348 347 347 347 347 347 347 348 350 350 350 351 351 351 350 349 349 349 350 351 351
322 324 320 320 321 318 323 328 326 330 335 335 335 332 335 336 331 332 334 334 336 337 340 338 333 345 358 354 361 370 368 369 367 363 365 365 361 360 358 356 357 357 357 358 357 356 353 347 345 346 345 344 345 345 346 347 347 347 348 348 348 348 348 348 348 348 348 348 348 347 347 347 347 348 349 350 350 350 351 351 350 350 351 351 350 351
333 339 328 320 322 323 325 326 323 326 332 334 334 337 339 339 342 340 331 333 337 334 338 339 333 346 358 350 355 368 367 366 364 362 366 365 359 358 358 357 358 358 356 354 353 352 349 346 345 345 345 344 345 345 345 346 346 347 348 348 349 349 349 348 348 348 348 348 348 348 348 347 348 348 348 348 349 349 350 350 351 351 351 352 351 352
341 341 328 326 342 344 333 331 330 330 336 335 331 337 338 336 344 347 340 342 342 336 339 337 334 347 357 353 356 362 361 362 360 361 365 363 360 356 354 356 358 357 356 353 352 351 347 345 346 346 345 345 345 345 345 345 345 346 347 348 349 349 349 349 349 349 349 349 349 349 349 348 349 349 348 349 348 347 348 349 351 351 351 352 352 352
324 328 328 328 339 339 330 334 338 334 337 339 336 339 341 343 346 341 341 348 343 337 339 335 333 346 356 355 355 356 358 361 360 359 361 361 359 354 351 352 353 354 355 353 352 352 350 348 346 346 346 346 346 345 346 345 345 345 346 348 349 349 349 349 349 349 349 349 349 349 349 349 349 350 349 349 348 347 347 348 350 350 351 351 352 352
326 336 343 335 330 330 327 333 341 340 333 330 334 338 339 344 344 335 336 338 332 332 337 336 337 348 357 353 348 350 357 361 360 358 357 357 354 349 349 350 351 353 352 352 354 353 351 349 347 346 346 346 346 346 346 345 346 345 345 348 348 349 350 350 349 350 349 349 350 349 350 350 350 350 350 350 350 348 346 347 348 349 350 351 351 351
339 339 351 350 334 330 335 340 345 343 327 318 323 332 337 342 343 340 337 332 332 335 337 344 345 340 347 353 347 352 358 357 360 360 359 359 354 350 349 348 349 351 348 350 353 352 351 349 346 345 346 346 346 346 346 346 346 345 345 347 348 348 350 350 350 350 350 350 350 350 350 350 350 350 350 350 350 349 347 346 347 348 349 349 349 350
340 324 334 347 334 331 343 343 337 332 324 320 321 323 333 344 341 336 334 336 339 333 333 352 354 334 340 361 357 355 360 358 361 361 358 358 353 349 349 348 348 349 347 348 350 351 353 351 347 345 345 346 346 346 347 346 345 346 345 346 347 348 349 350 350 350 350 350 350 350 350 350 350 350 350 350 350 350 349 348 347 347 347 348 349 350
343 322 322 329 327 330 335 331 328 328 325 327 328 321 326 341 340 332 337 345 345 334 332 349 352 338 345 365 361 353 353 355 356 353 351 352 348 347 348 348 348 348 348 348 348 349 351 351 349 346 345 346 346 346 347 346 346 346 345 345 346 348 349 350 350 350 350 351 351 351 351 350 350 350 350 350 351 351 351 350 349 348 347 348 349 351
333 326 325 324 320 323 326 326 325 325 323 323 328 327 326 336 340 334 341 349 343 337 344 353 353 349 349 355 357 350 344 347 350 348 349 352 348 346 348 348 347 347 347 348 347 347 348 349 348 346 345 346 346 346 347 346 346 346 345 345 346 346 348 349 350 350 351 351 351 351 351 351 351 351 351 351 351 351 352 351 350 350 349 350 350 351
324 326 334 334 321 318 326 329 324 324 325 322 327 336 333 333 335 333 339 346 336 337 352 355 353 355 352 351 354 349 345 351 355 354 353 348 343 344 348 348 346 346 347 346 346 346 347 347 346 344 345 345 345 346 346 346 347 346 346 346 345 346 348 348 350 351 350 351 351 351 352 352 352 352 352 352 352 352 352 352 352 352 352 352 352 352
329 328 333 334 322 316 321 327 329 331 326 321 327 338 339 339 339 335 339 344 339 343 354 345 339 351 358 352 351 351 351 356 358 356 350 343 340 343 348 349 348 348 349 347 345 345 345 346 346 344 343 344 345 346 345 346 347 346 346 347 346 346 347 348 350 351 350 351 351 351 352 352 352 353 352 352 352 352 352 353 353 353 353 353 353 353
338 331 328 329 322 317 322 331 336 329 319 322 332 336 339 346 344 337 341 347 345 350 353 340 337 351 355 349 353 357 357 357 356 353 349 346 345 344 346 350 350 349 349 346 344 345 344 344 343 341 342 343 343 344 345 346 346 346 346 347 346 346 346 347 350 351 351 351 351 352 352 352 353 353 353 353 353 353 353 353 353 354 354 353 353 353
339 332 329 330 321 317 327 336 329 318 318 328 337 336 335 339 340 338 345 351 351 351 350 345 348 354 352 353 361 361 356 351 348 345 344 344 344 344 345 347 348 348 347 344 344 344 342 340 340 340 341 342 342 343 344 345 346 346 346 346 347 347 346 347 348 350 351 352 352 352 352 352 353 353 353 353 353 353 354 354 354 354 354 354 353 353
337 333 336 338 327 321 333 336 320 317 330 339 339 338 335 336 342 349 350 351 353 354 354 353 355 356 355 353 353 351 346 342 341 343 342 341 342 343 344 344 345 346 347 346 346 345 342 340 341 341 341 342 343 342 343 343 345 345 346 347 347 347 347 347 347 349 351 352 352 352 352 352 353 352 353 353 353 354 354 353 354 354 354 354 353 353
335 334 335 334 326 322 326 326 321 326 338 339 338 340 340 339 343 342 337 341 350 356 361 363 357 352 351 346 343 343 341 339 342 343 340 340 341 341 343 346 345 345 346 346 344 343 342 341 341 341 341 341 341 341 341 341 342 342 344 345 347 348 348 347 347 348 350 351 352 352 352 352 352 352 352 351 350 351 353 353 354 353 353 353 352 352
330 335 329 321 321 326 323 322 326 328 329 336 344 345 343 345 347 341 335 339 351 355 358 365 361 353 349 345 341 343 343 345 350 345 338 339 341 339 341 344 343 342 343 341 340 340 340 340 340 340 340 339 339 338 337 338 338 339 340 341 344 347 348 348 347 348 349 350 351 352 352 352 352 352 352 351 349 349 351 353 353 353 353 352 352 351
327 331 328 320 323 331 329 323 322 319 321 335 350 345 338 340 349 351 340 336 350 356 353 361 365 357 353 349 345 348 350 350 354 351 340 338 341 341 341 340 339 341 341 339 339 340 338 339 339 338 337 336 335 335 335 335 335 336 337 338 340 343 346 348 348 348 348 349 350 350 351 351 352 351 351 351 349 348 350 353 353 353 352 352 351 349
329 333 337 329 324 328 330 326 324 323 327 339 349 344 336 336 344 346 334 332 349 357 353 359 363 359 360 357 351 352 351 349 357 358 344 338 340 342 342 341 339 340 339 338 339 339 338 338 336 335 335 334 334 334 334 334 335 335 335 336 337 339 342 346 348 348 348 348 348 349 350 350 351 350 349 348 347 347 350 353 353 351 350 348 347 344
333 338 336 326 324 328 328 326 326 328 330 338 348 347 339 336 335 331 328 335 350 356 353 359 363 360 361 356 350 354 356 354 360 356 342 338 341 340 340 340 338 337 338 338 338 337 336 335 333 333 333 333 333 333 334 335 335 335 336 337 337 337 339 342 346 348 348 348 348 348 349 349 349 349 348 348 348 348 349 351 351 349 348 345 343 341
333 340 335 328 331 334 327 320 322 329 334 338 347 349 344 335 326 325 331 343 353 356 353 359 364 362 358 353 353 360 360 352 349 346 340 339 341 339 338 338 336 336 337 336 335 334 333 332 332 332 332 332 333 333 334 335 334 335 337 338 337 338 339 339 342 346 348 348 348 348 348 348 349 349 349 349 348 348 349 350 350 349 347 345 341 340
328 331 330 329 330 332 334 329 323 327 336 342 343 343 339 330 327 335 345 347 349 355 354 354 360 360 356 355 354 354 350 343 340 341 340 339 340 339 338 336 335 335 335 333 332 332 331 331 331 330 330 331 332 333 334 334 332 334 337 338 338 340 341 339 340 344 347 348 348 348 348 348 349 349 349 349 349 348 347 347 347 347 345 342 339 336
332 325 326 330 328 329 336 335 325 322 329 335 336 335 331 330 339 351 351 342 344 353 354 353 356 353 351 353 347 342 342 340 339 341 340 338 339 339 336 335 333 332 332 331 330 330 330 330 329 328 328 329 331 333 334 332 332 335 339 340 342 343 342 340 341 344 347 347 347 347 348 348 349 349 349 348 348 346 342 339 340 341 340 337 335 333
332 326 328 333 334 331 330 332 334 335 334 334 337 341 344 348 352 353 351 345 345 349 350 352 355 350 347 352 347 339 339 340 339 341 340 338 339 338 336 334 332 330 331 329 328 329 328 328 328 327 327 329 331 332 333 331 332 336 338 340 342 343 341 341 342 345 346 347 346 346 347 348 348 348 348 347 346 342 337 335 335 335 333 333 333 330
327 330 330 331 337 340 339 341 345 344 338 336 340 347 354 353 346 345 350 351 349 347 346 352 358 350 343 346 345 338 338 339 338 339 339 338 338 338 335 332 329 329 329 327 327 327 326 326 326 325 326 329 330 330 330 330 332 334 335 338 341 343 343 343 345 346 346 345 345 345 346 345 344 344 345 344 342 338 335 333 332 330 329 330 330 328
330 334 333 331 334 336 336 339 339 337 337 340 340 342 349 351 343 342 349 353 354 352 346 349 358 353 341 343 346 339 336 338 337 337 337 337 337 335 331 328 327 327 326 325 326 326 325 325 325 325 326 327 328 328 329 330 330 331 333 336 339 341 342 342 343 344 343 343 343 342 343 342 338 337 337 337 337 335 331 330 329 327 326 326 325 323
334 334 335 331 330 328 329 338 343 343 344 346 344 341 345 350 346 344 350 357 360 356 349 348 353 348 339 343 351 347 338 335 336 337 336 335 336 333 328 324 325 324 324 324 325 324 324 324 324 324 325 325 326 327 327 328 330 330 331 333 335 337 338 337 337 337 337 337 337 337 337 336 334 332 332 331 330 329 328 327 326 325 324 324 322 320
333 333 333 333 335 334 331 337 343 345 345 346 345 344 345 349 348 345 348 353 353 349 347 346 345 345 343 343 348 348 340 334 334 337 335 333 333 330 325 323 323 322 323 324 323 322 323 323 323 324 324 324 326 326 326 327 328 329 330 331 332 333 334 332 331 332 332 332 332 331 332 331 330 329 329 328 328 328 327 326 326 325 324 322 319 317
332 327 330 336 343 343 339 338 340 342 344 346 345 345 347 349 352 350 348 349 349 347 347 343 339 341 344 343 342 342 338 334 334 334 333 333 332 327 323 322 322 322 322 322 321 322 323 324 324 323 324 325 326 326 326 326 326 327 328 329 329 330 330 329 329 329 329 328 328 328 327 327 327 326 326 327 327 327 326 325 324 324 323 320 316 313
329 328 334 337 340 345 349 349 342 338 345 350 346 346 348 347 349 353 351 349 350 350 351 348 339 334 335 335 336 339 339 335 331 331 331 331 328 324 322 322 322 323 322 320 321 324 324 323 323 323 324 325 325 325 325 325 325 326 327 327 328 329 329 328 328 327 326 326 326 325 324 324 324 324 324 324 324 325 325 325 324 323 321 319 317 315
333 334 339 341 342 345 349 350 343 339 345 347 343 348 352 347 348 355 355 353 353 349 349 353 350 342 338 333 331 335 339 334 328 329 331 328 323 322 322 322 324 324 321 320 324 326 324 322 323 324 325 326 325 324 324 324 325 326 326 326 327 327 327 328 327 326 325 324 323 323 323 323 323 324 324 324 325 325 324 322 321 319 317 315 315 315
Wind_Speed
2 2 3 5 5 5 6 6 6 4 4 5 4 3 4 3 0 1 2 2 4 3 1 2 1 4 3 3 4 4 2 5 7 6 5 6 6 6 7 7 7 7 6 9 14 16 17 18 18 18 19 19 18 18 18 18 18 17 17 17 17 18 18 17 17 17 18 17 17 16 16 16 15 13 11 9 10 11 9 9 8 8 8 7 7 6
4 3 7 6 6 6 6 6 4 2 3 4 4 3 3 3 1 2 1 4 4 1 1 0 1 6 5 3 4 3 0 5 7 8 7 7 7 6 7 7 7 5 4 7 11 14 16 17 18 18 19 20 20 20 20 20 19 18 18 18 18 18 19 19 18 18 19 19 19 18 17 17 15 14 12 10 11 11 10 10 10 10 10 9 9 7
4 4 10 6 6 5 3 4 4 3 3 2 2 4 2 2 3 1 2 3 3 1 2 1 2 7 6 4 4 4 3 4 5 6 6 7 7 6 7 7 6 6 5 6 8 12 16 17 18 18 19 21 21 21 22 22 21 19 19 19 19 19 20 20 19 19 18 18 18 17 17 16 14 13 11 10 11 11 11 11 11 11 11 11 10 8
1 5 7 4 7 6 2 4 6 2 1 3 3 3 2 4 4 0 0 2 3 2 1 2 3 5 6 3 4 5 4 3 2 3 3 5 7 7 8 7 8 9 8 8 8 10 14 16 18 18 19 21 21 21 22 23 23 21 20 20 20 20 21 21 20 19 18 17 16 16 15 14 13 12 11 11 12 12 12 12 12 12 11 11 10 8
6 7 3 3 6 7 3 2 4 2 4 2 5 5 4 5 4 2 4 4 3 2 2 4 2 4 4 4 5 2 2 3 2 2 3 4 4 5 6 7 8 10 10 10 10 9 12 16 19 20 21 21 21 22 24 25 25 23 22 21 21 21 21 21 21 19 18 16 16 15 14 13 13 12 11 12 14 14 14 14 13 12 11 11 11 9
8 7 3 1 1 4 2 3 3 4 2 4 4 7 6 7 6 7 9 6 3 1 2 3 2 4 4 3 5 1 1 4 2 2 6 6 4 4 6 7 7 8 9 10 11 11 13 16 18 20 21 21 22 24 26 26 26 25 23 22 22 22 22 22 21 20 18 17 17 16 15 14 13 12 12 15 17 17 16 15 13 12 11 11 11 10
5 4 3 3 2 2 1 4 5 5 4 3 4 7 8 10 10 11 10 5 2 2 3 2 3 3 5 4 4 3 2 5 3 4 7 6 5 5 7 8 8 8 8 7 9 10 12 16 17 19 21 23 24 25 26 26 26 25 24 23 23 22 22 22 21 20 19 18 18 17 16 16 16 16 16 17 19 18 17 15 13 11 11 10 10 11
3 2 5 5 3 3 2 3 5 7 7 2 3 6 11 10 10 12 9 4 2 2 3 4 3 0 4 4 4 3 3 5 5 6 7 6 6 6 6 8 9 10 9 8 8 9 11 16 19 20 23 25 26 26 25 25 26 26 25 24 23 23 23 22 22 21 20 20 19 18 18 19 18 19 18 17 18 18 17 15 13 11 11 10 10 10
3 1 3 4 4 3 5 5 7 9 6 3 2 8 9 8 8 6 5 3 1 2 3 4 2 2 4 5 4 2 2 5 7 8 8 8 8 6 7 7 9 10 10 10 10 10 12 17 21 23 24 26 25 25 26 27 27 27 26 25 24 23 23 23 22 21 21 21 20 20 21 20 20 19 18 17 17 17 16 15 13 12 11 11 11 11
3 2 5 6 4 5 5 3 6 7 4 1 6 12 9 8 7 5 4 3 2 3 1 5 1 2 4 5 3 2 1 5 7 7 7 8 9 7 7 7 8 8 9 10 10 11 15 19 23 24 23 24 25 25 26 27 27 27 27 26 26 25 25 24 23 22 22 21 21 22 22 21 20 20 18 17 17 16 15 15 14 12 11 11 11 11
5 2 3 5 4 6 3 3 1 6 9 7 8 10 9 7 5 4 3 3 4 2 4 6 3 4 2 5 3 1 3 4 5 5 5 8 9 9 9 7 8 8 8 9 9 10 15 20 22 22 21 23 24 24 24 25 26 27 28 28 27 27 26 25 24 22 22 22 23 23 23 21 21 20 19 17 17 16 16 15 14 13 12 12 12 11
7 3 2 2 2 4 6 6 4 3 7 7 6 6 6 4 4 4 4 3 3 2 5 4 3 5 1 4 3 4 5 5 4 5 6 7 10 11 10 9 8 8 8 9 8 9 12 14 17 19 21 22 23 23 24 25 26 27 28 29 29 29 28 27 25 24 23 24 24 23 21 20 20 20 19 18 17 17 17 16 14 13 13 13 12 12
5 2 3 4 1 3 6 6 3 4 4 6 6 5 5 3 3 2 3 1 1 4 3 3 4 3 4 6 4 6 7 6 6 6 7 7 8 9 10 10 9 8 8 9 8 9 9 10 14 18 20 21 22 23 25 26 27 28 29 29 30 31 31 29 28 27 25 25 24 22 20 19 19 20 20 19 18 17 17 15 14 15 15 14 13 14
4 4 4 3 2 1 5 6 3 1 1 5 6 4 4 3 3 0 3 1 2 3 1 2 3 0 4 4 5 6 6 6 6 6 7 7 7 8 9 9 8 8 9 9 9 9 9 11 16 19 21 22 23 25 27 27 27 28 29 30 31 32 32 31 30 29 27 26 25 23 22 20 19 19 20 20 18 17 17 16 16 15 15 15 14 14
1 3 3 0 2 1 3 4 6 6 4 3 4 5 5 5 4 3 3 2 3 2 2 1 1 2 2 2 4 5 5 5 4 5 5 4 5 6 6 7 8 8 9 8 9 10 10 14 18 20 21 23 24 25 26 27 28 28 29 30 31 32 32 32 32 30 29 28 27 25 23 21 20 20 20 20 19 18 17 16 16 16 16 16 15 14
2 3 5 4 4 0 2 3 4 6 4 2 2 4 2 4 5 3 3 4 3 1 0 1 2 3 3 3 4 3 4 3 2 4 3 3 3 2 4 6 7 8 8 8 9 10 11 15 19 21 22 24 25 26 27 27 28 29 29 31 32 32 32 33 33 31 29 29 27 25 23 22 21 21 20 21 20 19 18 17 17 17 17 16 15 15
2 3 6 4 4 3 2 4 2 3 2 1 2 2 2 3 6 5 2 1 3 2 2 1 2 4 2 2 4 4 4 4 5 6 5 5 4 1 3 5 5 6 7 6 7 8 10 14 18 20 22 24 24 25 27 29 30 31 31 31 32 32 31 32 33 31 30 29 28 25 24 23 23 22 21 21 20 19 19 18 18 18 18 17 16 15
4 2 6 3 4 3 1 5 5 3 3 3 2 4 3 3 4 4 2 3 3 1 3 1 2 4 1 2 3 4 4 5 6 5 4 5 5 3 2 3 4 5 5 4 4 5 8 12 17 21 23 26 28 29 29 30 31 32 32 31 32 32 32 33 33 31 30 30 29 27 25 24 24 23 22 21 20 19 19 19 20 20 19 17 16 15
4 1 7 2 3 2 5 6 4 5 4 4 4 3 2 3 1 1 2 1 0 1 3 3 2 3 3 3 2 0 1 3 5 5 5 5 4 4 4 3 4 4 3 3 2 2 3 4 5 7 7 9 15 21 27 31 31 30 30 31 31 33 33 34 33 32 30 31 31 30 27 26 25 25 24 23 21 20 19 20 20 20 19 17 16 15
4 3 3 5 1 2 5 4 1 3 5 5 3 2 2 2 3 1 2 2 2 1 2 3 3 2 5 5 4 5 5 4 3 4 4 4 4 3 4 4 3 3 3 3 3 3 3 6 7 5 4 1 5 11 14 21 27 29 30 29 30 31 31 31 32 31 31 31 32 31 30 28 27 26 25 24 23 22 20 20 20 20 19 17 16 15
3 4 2 4 4 2 1 1 3 4 3 3 2 2 1 2 2 2 2 2 2 3 2 1 2 4 5 4 6 6 5 5 4 3 3 3 4 4 4 4 4 2 2 3 5 4 4 8 13 15 15 16 19 18 14 16 22 27 29 29 29 29 29 30 31 32 32 32 32 32 31 31 30 29 28 27 26 24 22 20 20 20 19 18 17 17
2 3 3 1 3 1 4 5 4 5 4 5 4 3 3 3 3 3 1 2 1 3 3 3 1 6 5 3 4 5 4 4 4 3 3 4 3 3 4 4 4 4 3 4 3 4 5 8 14 17 18 19 22 24 21 18 20 23 26 29 29 29 29 30 31 32 33 32 32 32 33 32 32 31 30 29 28 27 25 22 20 20 20 19 19 18
3 3 4 1 1 3 7 7 2 3 3 4 3 3 4 4 4 5 2 3 1 2 1 3 1 6 5 2 2 3 4 4 3 3 3 3 2 2 4 4 4 3 3 4 3 2 3 8 14 18 19 18 19 22 23 22 21 23 26 27 28 29 30 31 32 33 33 33 32 33 33 32 32 31 30 30 29 29 28 26 22 21 21 21 20 20
3 4 4 1 4 4 6 5 3 3 5 4 1 2 4 2 3 5 4 3 3 3 2 3 1 5 5 2 1 1 2 3 2 3 3 3 1 1 3 3 4 4 4 4 3 2 3 4 9 14 17 20 21 21 22 23 23 25 26 26 27 29 31 31 31 31 32 32 33 33 32 31 31 30 30 30 30 30 30 29 26 24 23 22 22 21
1 2 4 3 3 5 5 5 5 4 2 2 1 1 3 4 6 4 2 3 2 3 4 4 2 6 5 3 2 2 3 4 4 3 3 3 0 1 2 3 3 4 4 5 4 3 2 2 4 7 12 18 22 23 24 24 23 25 27 28 28 30 30 31 31 30 31 32 32 32 31 31 31 30 30 30 30 30 30 30 29 27 26 25 24 24
3 3 4 5 3 2 1 2 3 2 1 0 1 2 2 4 7 4 2 4 1 3 4 4 4 5 6 4 2 2 2 3 6 4 3 3 1 1 2 3 3 3 3 5 5 4 2 1 1 4 7 11 17 22 25 25 23 24 27 29 30 31 30 30 30 30 30 31 31 31 31 31 31 31 31 31 31 30 30 31 31 30 29 28 26 26
4 2 3 6 7 7 6 7 6 3 3 0 1 1 3 4 5 5 4 2 3 4 2 5 5 3 7 6 4 5 3 4 6 4 4 3 1 1 2 3 3 3 3 4 4 4 3 2 0 2 5 8 12 15 20 23 23 24 25 28 30 31 31 30 29 29 30 30 30 31 31 32 32 32 32 32 32 32 31 31 31 31 31 29 28 27
5 1 2 6 6 7 7 5 2 3 3 3 2 2 3 4 5 5 4 4 5 6 2 7 5 3 7 6 6 6 5 5 5 5 4 3 1 1 2 2 3 3 3 3 3 4 4 3 2 1 2 6 9 12 14 17 21 23 24 25 27 29 30 30 29 29 29 29 30 31 32 33 33 33 33 33 32 32 31 31 31 31 31 30 28 27
6 2 3 4 2 4 4 3 1 3 3 3 4 5 4 5 7 7 6 6 7 7 5 5 6 6 7 6 6 5 4 4 4 4 2 1 1 2 2 2 3 4 4 4 4 4 4 3 2 2 3 5 7 10 13 15 19 21 23 23 24 26 28 29 29 29 29 28 30 32 33 33 33 32 32 32 31 31 31 31 31 31 30 29 29 28
4 2 3 3 2 1 2 4 4 5 3 1 3 5 5 6 9 8 5 5 5 4 4 4 7 8 8 6 4 2 3 4 2 1 1 2 2 2 2 2 2 2 3 4 4 4 4 4 4 3 4 5 6 9 12 15 18 20 23 24 24 25 27 28 29 29 29 29 31 32 32 32 32 31 31 31 31 31 31 31 31 30 30 29 29 29
4 2 2 4 4 2 2 1 3 3 3 3 3 3 1 4 5 4 2 4 3 1 2 4 3 6 7 4 3 2 3 3 4 3 2 1 1 2 2 2 2 2 3 4 4 4 4 5 5 5 5 6 7 8 10 14 16 19 22 24 24 25 25 26 28 29 30 31 33 32 31 31 31 30 30 30 31 31 31 31 30 30 29 29 29 29
4 3 1 5 5 2 2 4 4 4 4 1 5 4 3 4 4 4 3 5 5 4 4 3 1 5 5 2 3 3 3 4 3 2 2 1 1 1 2 3 3 4 4 4 4 4 5 6 6 6 8 9 9 9 9 11 13 16 21 23 25 25 24 24 26 29 30 31 32 32 31 31 30 30 30 30 31 31 31 30 30 29 29 28 28 28
4 5 3 3 4 3 3 3 4 4 5 3 5 4 5 4 3 3 2 4 6 6 5 4 5 5 4 1 3 3 4 4 2 2 2 1 1 2 3 4 4 4 3 3 5 5 4 5 7 8 11 11 11 11 11 11 11 14 17 20 23 25 25 25 26 28 30 31 31 32 32 31 30 30 30 30 30 30 30 29 29 29 29 29 28 27
4 6 4 3 4 3 4 2 3 2 0 4 6 4 6 5 5 5 3 4 5 4 3 4 3 3 2 1 4 3 3 3 2 2 3 3 2 3 3 4 4 4 4 4 5 5 5 7 9 12 14 15 14 13 13 12 12 13 15 17 20 22 24 25 26 27 29 30 31 31 31 31 30 30 31 31 31 29 28 28 29 29 29 28 27 26
5 5 3 2 3 3 1 4 3 3 6 6 5 4 5 5 5 5 2 1 4 3 2 1 1 3 2 3 3 3 2 3 3 3 3 3 3 3 3 4 4 4 4 5 5 5 6 9 11 14 15 16 15 15 14 13 13 13 14 15 17 19 22 24 26 27 28 29 30 31 30 30 30 29 28 27 27 29 30 29 28 28 27 25 23 22
6 5 3 2 2 2 2 3 3 6 7 5 6 4 2 3 4 4 3 3 5 5 4 4 4 4 3 3 2 2 2 2 1 1 3 4 4 4 3 4 4 4 4 5 6 7 9 12 14 15 15 15 15 15 15 15 15 16 16 16 16 18 20 22 25 27 27 28 29 29 29 29 28 27 22 16 14 19 25 28 28 26 24 21 19 19
7 5 3 2 1 2 3 2 2 3 4 4 4 3 3 4 4 5 2 4 6 5 5 5 4 4 4 4 2 1 0 1 3 3 2 3 4 4 4 4 5 5 6 7 9 11 13 15 16 16 15 15 16 16 16 17 17 18 18 17 17 18 19 21 23 25 26 28 28 27 27 28 28 28 26 22 18 17 20 23 25 24 23 21 19 18
5 4 5 4 2 2 4 1 1 1 2 5 7 6 3 3 5 6 4 3 6 5 6 5 5 5 4 4 3 0 2 3 2 4 3 1 3 4 3 4 5 5 7 8 11 13 15 16 16 16 17 18 18 18 18 18 19 18 18 19 18 18 20 21 22 24 25 26 27 27 28 29 29 28 28 29 30 26 21 18 19 21 22 22 21 19
6 3 4 5 2 2 4 3 3 4 5 7 8 7 3 3 5 5 4 4 6 6 7 5 6 6 4 5 4 2 4 2 3 5 3 2 4 3 3 4 4 4 7 8 10 13 14 15 15 17 18 18 19 20 20 20 20 19 19 21 20 19 21 21 22 23 24 24 25 26 29 30 30 28 25 25 27 27 23 19 19 21 21 21 21 20
6 4 4 4 3 3 4 3 3 3 4 5 6 4 2 4 6 7 2 5 6 6 6 6 6 6 5 5 4 4 4 4 4 4 3 4 3 2 2 3 3 4 8 9 10 12 13 14 15 16 17 17 18 19 20 20 21 20 22 24 23 22 23 22 21 21 23 23 24 24 27 29 28 26 25 26 26 25 22 20 20 21 21 21 21 21
3 3 2 4 4 3 4 3 2 3 4 5 5 4 4 3 4 4 5 7 5 6 6 6 7 6 6 7 5 3 4 4 3 3 5 5 4 3 3 5 5 7 9 8 9 11 12 14 14 14 15 16 17 18 18 18 18 20 25 27 26 26 26 24 22 21 22 23 24 24 25 26 26 26 27 28 28 27 25 23 23 24 24 23 22 22
2 2 2 3 4 3 3 3 0 3 5 5 3 3 4 4 2 5 6 4 5 7 6 5 6 5 6 7 5 3 3 2 3 5 6 6 5 5 5 7 8 7 6 6 8 9 11 12 12 13 14 15 16 16 17 16 15 18 23 26 27 30 29 25 22 21 21 22 24 25 25 25 26 28 29 29 29 30 29 28 29 29 28 27 26 24
3 3 1 2 4 3 2 3 2 2 5 7 7 3 2 4 5 5 3 1 3 6 7 5 5 5 6 5 4 4 4 5 6 6 5 5 5 5 6 6 5 4 4 6 7 7 8 9 10 12 13 14 15 16 16 15 15 15 17 21 24 25 24 22 22 21 22 23 24 26 27 27 28 29 30 32 34 33 32 33 35 34 32 31 29 27
2 2 2 2 3 4 3 2 3 4 6 7 8 5 5 5 5 5 6 3 2 3 5 5 5 5 7 6 5 5 6 6 6 6 5 5 5 4 5 4 3 3 4 5 6 6 7 7 9 11 12 13 14 14 14 14 13 12 12 13 15 14 13 16 20 21 22 24 26 26 27 29 31 33 33 34 35 35 34 36 37 35 34 33 32 30
3 3 4 3 3 4 5 6 6 4 4 5 4 3 4 4 3 5 7 5 3 4 4 5 5 6 6 7 7 6 6 7 7 6 5 6 5 4 3 2 1 2 4 4 5 6 6 6 8 10 11 12 13 14 15 14 13 12 13 11 6 5 9 15 19 22 22 24 26 27 28 27 27 32 36 36 35 35 36 36 36 34 33 33 33 32
3 2 3 2 2 3 3 3 3 2 2 3 2 2 3 3 3 5 5 4 4 5 4 4 5 6 6 7 8 6 7 8 8 7 6 6 5 3 2 0 1 2 3 5 5 5 5 6 8 10 12 14 16 17 16 15 14 14 14 11 6 5 9 13 17 18 20 22 23 25 28 27 23 24 29 32 32 32 33 34 35 34 33 33 32 30
3 1 2 1 0 2 2 3 4 3 3 3 1 1 2 3 3 4 5 4 4 5 5 3 4 6 7 7 7 7 7 9 9 7 6 5 4 2 1 1 1 2 3 4 4 4 6 8 10 11 12 15 17 18 17 17 17 16 15 14 12 11 11 11 11 12 13 14 15 18 24 29 30 29 28 27 29 31 31 31 33 32 31 31 30 27
2 1 1 1 1 3 3 6 6 4 4 3 2 3 3 4 4 4 3 3 4 5 4 2 4 6 6 6 6 7 8 9 9 7 5 4 3 2 2 0 0 2 3 4 4 6 8 10 11 12 13 15 17 19 19 19 19 18 17 17 15 16 18 17 17 19 21 20 20 19 19 23 29 34 33 31 31 33 33 31 31 30 28 28 30 29
1 1 1 1 0 2 3 5 3 3 4 5 4 4 4 4 4 5 4 5 6 6 5 3 2 4 6 6 6 7 8 9 8 7 6 4 3 3 2 2 2 3 4 5 6 8 10 11 12 14 16 17 18 19 19 21 21 19 19 19 19 21 24 24 23 24 26 27 26 26 27 28 30 34 36 36 36 36 34 32 31 29 26 26 28 28
1 1 1 2 1 2 4 5 3 2 1 5 5 6 5 4 5 6 5 5 6 6 6 5 4 3 4 6 7 8 8 8 7 7 5 4 4 5 5 5 5 4 5 6 7 10 11 13 14 15 17 18 19 19 20 21 20 20 20 20 21 24 27 28 28 28 28 28 28 27 30 33 33 35 37 37 37 37 36 33 30 28 26 26 26 25
3 4 4 4 3 4 6 6 4 3 3 5 5 5 4 3 5 6 6 6 6 6 6 7 6 4 3 4 7 8 7 7 8 8 5 4 6 7 7 7 6 6 6 5 7 10 11 12 14 16 17 18 19 20 21 21 21 20 20 20 22 25 27 29 29 27 26 27 28 28 30 33 33 34 36 35 35 37 38 37 33 30 28 28 27 25
Wind_Direction
96 124 241 224 200 192 203 200 189 175 127 125 134 132 147 139 195 218 120 130 149 133 246 205 232 274 283 291 281 322 358 184 190 190 197 193 185 186 185 184 184 189 191 184 185 186 185 186 185 183 182 183 184 187 188 187 191 193 190 189 186 185 185 184 184 185 186 187 189 195 201 206 206 209 217 223 222 214 208 205 203 209 215 214 217 226
67 160 238 227 179 190 197 190 183 154 110 111 130 138 124 129 194 295 115 148 151 138 283 120 288 272 254 224 264 306 349 190 190 185 193 196 190 189 186 183 180 173 154 164 177 182 182 183 183 182 180 182 184 187 189 190 192 196 196 193 189 189 191 190 190 191 192 192 192 196 200 203 207 212 220 224 218 210 207 209 210 215 217 214 215 222
20 231 248 233 170 178 173 148 167 189 158 133 118 125 129 168 166 338 17 124 119 90 294 213 205 262 259 213 228 246 220 223 203 182 182 187 190 194 188 177 166 158 153 166 174 178 181 183 182 182 183 186 188 187 189 191 193 197 200 198 194 194 195 195 196 197 198 198 196 197 198 201 208 216 223 223 213 208 210 214 216 218 216 212 213 218
300 247 245 205 146 155 180 153 153 180 187 154 130 123 198 209 166 186 303 99 77 86 143 169 192 269 282 254 228 221 223 254 238 189 189 188 192 201 195 179 168 168 169 174 176 178 180 181 182 183 186 189 188 188 189 190 193 198 203 202 198 198 199 199 199 201 202 202 200 201 205 211 219 226 228 223 215 214 216 216 217 216 215 213 213 216
243 243 207 127 132 150 183 186 158 208 292 245 169 166 190 192 174 132 137 120 41 37 114 103 33 301 276 254 248 238 232 257 264 206 224 234 218 211 204 191 182 178 174 174 177 180 180 182 185 186 188 189 188 190 192 192 194 198 203 204 202 200 201 203 202 201 202 205 206 209 216 223 227 228 225 218 215 217 219 217 215 213 214 215 213 215
260 253 181 177 182 136 148 280 231 186 256 305 213 197 172 151 135 109 124 117 49 328 226 107 50 299 296 269 253 290 194 231 269 229 221 231 226 210 205 200 195 192 186 180 180 182 182 184 186 187 187 188 191 194 196 196 197 199 203 204 205 203 202 204 204 202 204 208 212 216 219 217 215 215 215 215 215 215 215 214 213 213 215 216 215 217
264 290 96 133 199 117 105 273 247 163 136 312 245 187 141 127 129 132 138 124 101 225 277 86 133 270 318 312 278 312 255 232 258 243 228 228 219 208 206 201 195 195 197 192 187 185 182 183 185 188 189 190 194 198 198 198 199 201 204 205 206 205 205 204 204 205 208 212 217 222 224 221 214 212 216 219 218 216 215 213 213 215 216 217 218 219
227 328 67 102 104 111 147 245 235 151 129 276 278 134 130 134 142 148 142 119 153 183 0 25 107 115 307 285 288 309 229 236 248 236 236 235 224 218 217 210 199 195 194 193 192 189 186 186 188 191 192 194 197 197 196 197 200 201 203 206 207 205 205 205 205 208 213 217 222 225 226 224 221 218 219 220 218 217 217 215 213 214 217 221 223 221
226 144 138 137 93 133 200 218 195 146 121 291 26 96 114 122 122 129 114 95 120 96 10 328 66 85 277 276 317 351 191 239 245 230 230 232 228 222 220 218 211 202 195 193 193 191 191 191 194 195 195 197 198 196 195 197 200 202 202 204 207 206 206 207 208 212 219 223 224 224 223 221 220 220 220 217 215 216 216 215 214 214 219 223 225 223
251 208 177 148 133 208 222 211 183 146 131 218 91 83 77 76 81 80 84 90 47 59 270 269 148 111 276 285 329 14 194 244 245 230 221 221 226 224 220 221 215 210 202 198 197 194 194 194 197 198 195 197 198 198 198 198 198 201 202 203 206 208 206 208 213 218 223 224 221 219 218 218 217 217 217 215 215 216 215 216 216 218 221 222 224 224
290 284 177 147 170 200 158 91 147 133 132 132 90 79 72 56 53 55 55 78 57 8 259 246 181 126 289 287 276 218 215 225 236 253 231 210 217 218 215 217 213 211 205 200 200 199 197 197 198 197 195 196 198 199 198 198 198 200 202 203 205 208 208 209 214 219 221 217 215 216 218 219 219 218 216 215 215 216 216 217 220 223 224 224 226 227
333 346 205 243 196 155 104 72 27 63 107 104 86 88 81 27 17 31 356 36 83 266 261 243 160 122 200 263 252 246 252 237 223 252 248 215 215 217 212 209 207 209 206 199 199 198 194 194 195 195 196 197 195 196 197 199 200 200 203 204 204 207 210 210 211 213 214 212 213 217 220 222 225 224 221 218 218 219 219 222 224 225 227 230 231 229
332 272 267 309 251 141 103 89 47 7 32 79 95 89 77 32 16 33 310 337 184 243 251 180 136 121 238 242 243 258 265 255 233 237 245 230 218 217 215 210 203 201 203 201 198 195 189 189 190 192 195 195 193 195 198 199 201 201 203 205 205 207 209 209 209 210 212 215 217 220 223 227 231 230 228 225 225 226 226 229 230 229 231 234 233 230
326 307 332 350 281 152 107 123 145 225 98 121 130 115 105 100 70 244 265 297 251 267 327 159 146 100 280 256 230 243 262 265 256 248 246 239 225 216 214 212 207 200 200 201 199 195 193 191 191 192 193 193 194 196 197 199 200 201 203 204 206 208 209 210 211 213 217 219 222 224 227 232 236 235 233 232 232 232 233 235 236 236 237 238 237 234
104 309 315 210 262 319 99 148 166 151 139 165 161 132 137 150 142 189 214 189 220 258 343 284 194 172 232 251 227 240 278 283 278 278 264 258 248 229 214 208 207 206 202 198 198 197 196 194 192 192 193 194 196 197 197 198 199 200 201 203 205 206 208 210 212 216 220 222 223 226 229 235 238 240 238 236 237 238 238 239 240 241 242 243 243 241
123 252 261 260 271 126 112 174 152 110 104 202 145 102 127 175 143 138 175 171 173 159 47 249 224 208 214 258 272 290 311 303 323 340 353 347 305 219 205 212 207 209 206 199 199 198 198 196 194 194 195 196 198 197 197 198 199 200 201 203 205 207 207 209 212 217 221 223 224 225 230 235 237 238 238 237 238 240 241 242 243 244 245 246 246 245
86 276 284 321 354 16 133 160 118 86 139 144 78 131 213 157 119 112 144 58 72 125 254 247 249 296 319 278 292 348 354 346 4 10 16 4 1 117 199 221 211 213 210 203 204 200 197 196 196 196 196 197 198 198 199 200 201 202 203 204 205 207 208 209 212 217 221 222 223 225 230 233 234 234 234 235 237 239 241 244 246 249 249 248 248 247
131 266 297 12 67 347 335 101 69 45 128 112 128 197 196 101 95 103 116 19 39 179 271 311 232 284 324 249 299 3 9 346 349 355 7 15 21 25 290 250 223 218 211 209 213 207 204 203 202 201 200 200 200 199 200 203 204 205 205 206 206 206 208 210 212 216 220 221 222 225 229 230 231 232 232 235 237 239 243 246 249 251 249 247 247 248
108 85 298 304 143 289 346 66 53 358 52 109 165 173 117 116 143 43 109 140 74 216 287 313 293 262 208 225 268 81 286 306 320 335 1 12 9 356 326 295 248 227 207 197 190 178 193 206 212 209 205 211 213 210 206 204 205 206 207 208 208 210 211 211 213 215 218 220 221 225 229 230 231 231 233 236 238 241 245 248 251 250 246 244 246 248
99 109 279 285 251 318 1 62 141 330 28 55 64 47 45 125 154 134 119 157 162 161 268 309 333 284 229 220 179 184 221 238 264 312 344 334 321 324 320 313 279 227 187 166 163 159 146 138 142 140 106 73 261 257 238 217 208 206 209 210 210 212 213 212 213 214 217 219 221 225 229 231 232 233 235 237 239 243 247 250 251 249 244 243 246 249
82 107 195 289 333 41 76 141 177 177 119 80 49 23 21 72 122 143 79 80 127 139 180 261 319 273 251 213 170 189 221 213 210 249 284 290 305 320 317 316 310 278 212 197 185 168 146 146 158 170 176 188 209 226 238 235 223 213 210 211 212 213 213 212 213 214 216 219 221 223 227 230 233 234 236 238 240 244 247 250 250 247 245 246 249 251
138 118 139 280 359 108 237 259 212 188 166 147 160 177 155 117 119 125 1 321 90 116 163 158 251 271 261 213 183 189 205 217 206 204 246 276 292 312 314 309 309 304 272 252 224 172 160 160 166 176 180 187 204 214 216 223 228 223 217 213 213 214 213 214 215 215 217 219 220 223 226 229 232 235 236 238 240 243 245 247 248 246 246 248 250 253
144 104 96 109 255 234 265 278 222 171 138 120 128 146 140 126 117 126 185 244 120 91 127 121 170 270 269 254 220 200 205 228 211 188 230 275 270 274 296 308 311 309 304 299 293 253 210 185 177 176 178 188 203 212 214 216 219 223 223 219 216 216 216 217 218 217 218 219 221 224 225 227 230 233 235 237 238 240 241 243 245 245 246 249 253 255
100 85 79 345 303 308 310 324 23 72 89 94 56 86 119 133 125 139 170 170 136 152 140 91 288 271 281 313 322 260 261 273 253 212 229 261 261 252 297 329 334 325 331 337 332 317 300 246 201 184 178 189 202 209 215 218 217 217 220 221 220 220 220 220 220 219 218 219 222 224 225 226 228 230 233 235 236 237 238 240 241 243 245 249 253 255
123 108 100 71 2 349 348 351 352 349 53 117 130 82 104 109 101 109 126 85 93 189 149 120 239 255 273 313 349 346 338 313 284 255 232 238 171 76 314 332 335 329 339 341 337 333 333 311 255 225 199 196 201 208 214 218 218 216 215 216 219 222 223 222 221 220 219 220 221 222 224 226 227 228 230 232 234 235 235 236 239 241 244 247 251 254
122 137 121 111 126 166 201 257 265 252 232 126 94 107 111 109 112 130 118 78 106 203 142 143 216 260 291 304 298 296 326 290 280 279 264 258 98 92 297 311 321 337 343 331 325 322 322 11 309 287 259 227 217 214 215 218 219 218 215 215 216 220 223 223 222 221 220 220 220 221 223 224 225 227 229 231 233 234 234 235 236 240 243 246 249 253
98 120 128 135 162 182 187 212 222 166 126 222 332 126 144 125 112 111 106 133 185 161 171 215 202 263 302 290 265 263 247 245 263 270 271 288 29 68 279 301 325 341 342 327 323 322 328 338 305 290 282 268 256 238 226 222 221 220 217 215 216 218 220 221 222 221 220 220 220 221 223 223 225 227 228 230 232 233 234 234 235 238 241 245 248 250
99 123 159 146 179 198 183 207 232 110 129 172 180 232 202 143 121 122 152 200 164 124 254 253 183 186 273 263 244 249 236 233 256 262 267 289 357 6 307 329 349 354 353 354 347 334 335 339 333 333 289 273 267 260 249 238 232 228 223 219 217 217 218 218 219 220 221 221 220 222 224 225 226 228 229 230 231 232 233 233 234 237 239 243 245 247
111 150 194 162 196 198 178 233 245 114 117 162 176 228 231 158 164 187 199 195 154 144 228 235 169 192 248 250 241 244 211 200 232 246 265 342 43 25 2 0 8 2 355 359 355 334 323 313 303 306 301 282 257 250 251 249 244 239 234 228 222 220 220 218 217 218 220 220 221 223 225 226 227 228 228 229 230 231 232 233 235 236 239 242 244 245
111 157 199 157 86 99 195 230 196 137 120 189 210 232 230 195 200 209 203 185 170 172 201 169 171 221 246 233 229 236 153 158 154 108 63 63 61 36 18 354 5 11 356 351 343 328 316 307 307 307 306 299 273 254 246 244 245 243 240 235 229 225 224 220 217 218 218 219 223 226 226 226 227 227 227 227 229 230 232 234 235 236 238 241 244 245
96 151 191 110 76 348 320 100 121 115 140 203 273 292 212 191 213 220 178 174 187 211 159 123 154 256 262 220 176 129 119 111 80 70 79 93 74 32 2 315 316 318 315 326 326 322 319 317 322 323 320 315 301 283 261 249 244 242 241 239 234 231 228 223 220 219 218 219 223 226 227 226 226 226 226 226 228 230 231 233 235 237 239 242 243 245
98 119 81 77 88 268 307 64 70 52 72 40 313 295 173 158 190 211 190 183 183 169 147 123 237 263 269 238 135 105 93 94 96 119 123 102 324 341 304 282 282 280 291 311 313 318 323 324 327 325 322 321 316 309 295 274 256 246 242 240 237 235 232 227 223 220 221 222 222 223 225 226 226 225 225 226 228 229 231 234 236 237 239 241 243 245
127 137 148 108 120 227 290 50 83 63 51 346 284 230 187 184 192 192 203 202 183 150 145 188 226 243 267 262 111 83 75 100 132 167 160 191 237 236 253 260 267 279 296 306 298 303 309 307 311 311 311 313 312 312 310 298 278 262 254 249 244 238 233 231 227 224 224 224 223 223 223 224 225 225 225 226 227 229 230 232 234 237 238 240 244 246
139 139 156 144 138 210 287 9 94 96 126 250 249 204 189 208 194 173 191 216 196 168 174 203 228 260 273 151 133 114 90 112 149 204 194 195 197 210 251 271 283 299 310 296 288 297 301 300 304 305 305 307 309 313 314 306 292 282 273 264 255 245 237 233 230 226 226 226 225 224 222 222 223 224 227 228 227 228 230 231 234 237 240 242 244 245
141 128 133 113 123 160 338 41 103 213 234 244 281 276 211 202 175 152 136 225 210 221 236 216 246 241 202 134 133 137 118 134 172 207 207 199 196 203 243 274 286 297 300 297 298 299 296 298 300 300 302 306 311 316 315 310 304 297 287 275 264 254 244 237 232 228 226 225 225 224 222 220 220 224 229 231 229 228 228 231 235 237 239 242 243 242
144 140 129 101 114 139 90 92 159 237 258 286 322 312 183 141 129 118 58 301 233 203 185 185 209 203 148 105 109 134 148 165 169 241 222 203 202 206 217 243 261 269 274 281 287 288 291 295 295 298 302 306 311 314 312 310 307 302 294 283 271 261 249 240 236 232 227 225 224 222 220 218 217 217 221 229 242 244 237 231 231 234 235 234 234 234
138 144 133 114 146 147 138 167 232 281 300 307 302 259 173 149 162 150 138 267 244 195 170 174 183 177 135 114 120 143 138 67 28 347 277 203 201 216 222 231 241 258 272 280 285 289 293 295 297 303 308 311 312 312 310 310 307 302 295 287 277 267 255 243 236 233 229 225 222 219 217 217 215 213 214 219 233 255 257 241 229 227 227 223 220 217
121 155 163 161 178 113 105 112 274 244 255 250 243 247 230 170 172 145 122 272 259 209 183 171 162 166 146 130 152 257 33 46 352 301 286 248 229 219 221 238 247 259 274 285 292 294 297 301 306 312 317 318 317 315 314 313 310 303 294 286 278 271 261 248 239 235 231 228 224 218 215 216 216 215 217 220 222 230 243 240 224 217 215 213 208 196
64 65 118 126 136 125 120 138 183 193 230 240 234 251 268 165 148 100 64 307 267 208 180 165 160 169 161 151 160 116 77 78 265 263 250 231 229 207 196 219 234 257 269 276 284 288 296 308 315 317 319 320 319 318 318 315 310 302 291 284 279 273 265 255 246 239 233 230 228 223 219 219 219 216 214 214 215 217 221 219 209 201 194 190 185 172
59 43 72 116 154 170 144 155 212 218 237 246 235 236 213 140 109 83 60 271 252 198 174 163 168 179 169 154 141 115 133 183 231 240 201 185 187 171 188 209 227 265 269 273 285 295 307 320 323 322 324 323 320 319 317 313 307 298 289 284 278 270 263 258 254 247 238 231 227 225 222 219 215 208 203 205 210 211 208 202 194 187 179 172 167 160
74 51 85 133 153 163 155 169 248 251 238 242 236 199 164 120 80 111 205 236 213 179 179 171 173 178 161 153 156 170 195 206 201 171 164 163 158 150 185 213 232 257 267 280 303 315 322 327 328 327 325 323 321 319 315 311 302 290 285 283 276 269 264 259 254 249 241 232 224 221 219 214 206 201 198 202 204 201 199 195 184 175 171 167 162 159
117 72 85 129 141 151 155 149 213 272 238 194 164 155 146 133 167 208 218 220 171 168 180 181 180 179 167 168 179 186 190 190 167 162 168 172 171 172 197 223 240 257 277 301 321 330 332 333 332 331 329 328 326 322 320 316 301 286 281 277 273 273 269 256 244 239 234 227 220 214 208 201 196 195 194 193 190 186 183 179 171 165 164 162 158 154
172 150 158 178 162 133 80 89 110 244 224 163 131 114 149 172 203 210 191 147 176 169 168 181 191 183 176 175 169 157 155 161 168 172 173 175 179 188 210 234 258 290 315 325 333 340 342 339 336 335 338 339 333 327 327 322 308 295 285 277 276 280 273 250 231 224 220 216 210 204 199 194 191 188 185 181 178 173 165 157 155 157 158 156 151 144
206 167 184 217 181 133 117 171 193 211 215 181 149 154 199 204 194 169 144 148 209 182 163 183 205 198 180 166 154 157 163 168 174 174 165 170 190 213 229 252 298 327 325 326 340 352 355 351 346 345 348 349 341 335 338 334 323 320 320 305 291 284 267 236 217 209 208 206 202 197 193 192 189 184 179 175 171 163 154 149 148 148 149 148 144 137
250 199 178 192 199 167 173 210 228 226 225 212 176 172 212 217 187 155 141 141 190 195 170 178 199 201 177 150 143 157 171 176 178 174 168 181 200 212 221 256 337 325 313 329 356 7 7 5 1 359 0 1 357 354 356 356 352 354 358 350 318 244 212 204 200 198 198 197 195 193 190 186 179 172 170 170 166 157 149 145 142 140 140 140 136 131
278 208 158 158 247 233 210 228 259 274 268 246 220 200 206 200 176 157 140 138 178 185 172 182 191 179 161 146 145 162 184 183 177 175 179 189 204 209 194 138 1 318 330 359 13 15 19 22 19 17 14 12 12 10 9 14 21 20 20 30 60 129 167 178 183 186 188 186 184 182 176 168 157 151 153 157 155 149 142 138 135 133 132 129 126 124
294 203 129 71 53 192 225 302 315 301 285 277 243 192 180 171 170 166 161 168 177 168 170 185 164 149 155 158 153 161 178 178 171 173 179 185 196 201 154 77 355 348 13 29 31 37 47 41 30 26 22 18 20 21 20 26 36 40 46 58 76 99 113 117 120 124 132 142 148 152 155 151 141 132 129 130 130 126 123 122 122 121 120 120 119 118
265 140 87 43 122 171 232 281 298 290 279 272 211 184 184 174 158 141 142 146 128 122 133 136 130 142 158 166 157 155 165 173 171 171 174 180 185 178 158 151 346 33 47 55 67 65 57 47 39 37 34 29 27 28 30 35 41 49 59 66 77 92 92 82 80 88 92 96 101 106 115 123 123 119 115 112 110 109 109 110 110 110 112 116 119 119
225 84 93 118 20 311 270 268 295 341 329 308 263 224 221 197 152 117 106 117 117 114 113 100 107 151 159 161 158 151 157 171 174 168 168 170 166 168 171 161 116 85 76 80 80 67 56 54 54 51 45 40 37 36 37 40 42 48 60 69 77 85 86 81 80 84 87 90 91 93 94 95 98 102 105 105 103 103 104 105 107 108 111 116 118 120
197 204 154 119 96 292 253 227 201 138 249 262 243 221 218 191 138 120 121 128 134 142 137 112 77 87 136 155 160 153 156 172 173 163 162 163 167 175 172 154 126 97 93 93 77 60 58 65 65 57 48 45 44 44 45 46 47 52 61 70 78 85 88 88 86 85 87 89 90 91 94 95 94 96 100 101 103 104 104 105 108 110 110 112 114 116
194 194 166 150 192 236 237 223 197 163 217 234 204 181 195 173 137 142 156 154 155 162 151 132 118 109 122 160 171 164 160 162 162 159 153 156 169 172 164 153 133 107 107 103 67 57 68 77 70 57 48 47 50 53 55 54 54 57 65 73 80 86 90 91 89 87 87 90 92 93 95 96 99 101 103 104 104 104 102 102 102 102 102 105 107 108